www.pogodaiklimat.ru

Погода и климат >> Архив погоды >> Бразилия >> Парана >> Дойс-Визиньюс


ПОГОДА в Дойс-Визиньюсе

  • Прогноз погоды в Дойс-Визиньюсе
  • Монитор погоды в Дойс-Визиньюсе

АРХИВ ПОГОДЫ в Дойс-Визиньюсе

Время (UTC), дата Ветер
(напр.,м/с)
 
Видим.   Явления Облачность Т
(С)
Тd
(С)
f
(%)
Тe
(С)
Тes
(С)
Комфортность P
(гПа)
Po
(гПа)
Тmin
(С)
Tmax
(С)
R
(мм)
R24
(мм)
S
(см)
07 12.05 штиль 0 н/о н/о +19.1 +18 +18 1013.8 951.1 0.4
08 12.05 штиль 0 н/о н/о +19.0 +18 +18 1013.9 951.2 0.6
09 12.05 штиль 0 н/о н/о +18.7 +18 +18 1014.0 951.2 0.6
10 12.05 штиль 0 н/о н/о +18.7 +18 +18 1014.3 951.5 0.4
11 12.05 штиль 0 н/о н/о +18.9 +18 +18 1015.6 952.7 0.4
12 12.05 штиль 0 н/о н/о +19.3 +18 +18 1016.2 953.4 0.4
13 12.05 штиль 0 н/о н/о +19.7 +19.3 98 +22 +22 комфорт 1016.7 953.9 0.4
14 12.05 штиль 0
{1}
н/о н/о +19.7 +19.7 100 +23 +23 комфорт 1016.8 954.0 0.4
15 12.05 штиль 0 н/о н/о +20.1 +19.7 98 +24 +24 комфорт 1016.7 954.0 0.4
16 12.05 штиль 0 н/о н/о +21.0 +19.7 92 +26 +26 душно 1015.6 953.2 0.2
17 12.05 штиль 0 н/о н/о +21.3 +20.0 92 +26 +26 душно 1014.2 951.9 0.2
18 12.05 штиль 0 н/о н/о +21.5 +19.4 88 +26 +26 душно 1013.8 951.6 0.2
19 12.05 штиль 0 н/о н/о +21.4 +19.4 88 +26 +26 душно 1014.6 952.3 0.2
20 12.05 штиль 0 н/о н/о +21.1 +20.0 93 +26 +26 душно 1015.2 952.8 0.4
21 12.05 штиль 0 н/о н/о +20.7 +20.1 96 +25 +25 комфорт 1015.3 952.8
22 12.05 штиль 0 н/о н/о +20.3 +20.3 100 +24 +24 комфорт 1015.7 953.1 0.2
23 12.05 штиль 0 н/о н/о +20.1 +20.1 100 +24 +24 комфорт 1016.1 953.5 0.2
01 13.05 штиль 0
{2}
н/о н/о +19.2 +18 +18 1016.8 953.9 0.2
02 13.05 штиль 0 н/о н/о +19.0 +18 +18 1017.2 954.3 0.2
03 13.05 штиль 0 н/о н/о +19.0 +18 +18 1017.0 954.1 0.2
04 13.05 штиль 0 н/о н/о +18.7 +18 +18 1017.0 954.0 0.2
05 13.05 штиль 0 н/о н/о +18.0 +18 +18 1016.6 953.5 0.2
06 13.05 штиль 0 н/о н/о +17.8 +18 +18 1016.6 953.4 0.2
07 13.05 штиль 0 н/о н/о +17.5 +18 +18 1016.5 953.3
08 13.05 штиль 0 н/о н/о +17.3 +17 +17 1016.9 953.6 0.2
09 13.05 штиль 0
{2}
н/о н/о +16.8 +16.8 100 +17 +17 1017.3 953.9
10 13.05 СЗ 1
{3}
н/о н/о +16.5 +16.5 100 +18 +18 1018.2 954.7 0.2
11 13.05 штиль 0
{3}
н/о н/о +16.6 +16.6 100 +16 +16 1019.2 955.6
12 13.05 С 1
{3}
н/о н/о +16.3 +16.3 100 +18 +18 1019.8 956.1 0.2
13 13.05 СЗ 2
{5}
н/о н/о +16.0 +16.0 100 +16 +16 1020.8 957.0
14 13.05 СЗ 3
{5}
н/о н/о +15.7 +16 +16 1020.9 957.0
15 13.05 СЗ 2
{4}
н/о н/о +16.5 +15.6 94 +17 +17 1020.4 956.7
16 13.05 СЗ 1
{4}
н/о н/о +16.0 +15.5 97 +17 +17 1020.2 956.4 0.2
17 13.05 СЗ 3
{5}
н/о н/о +15.9 +14.7 93 +16 +16 1020.0 956.2
18 13.05 штиль 0
{5}
н/о н/о +16.6 +14.6 88 +16 +16 1019.6 956.0
19 13.05 СЗ 2
{4}
н/о н/о +16.3 +14.1 87 +16 +16 1020.4 956.7
20 13.05 СЗ 2
{4}
н/о н/о +15.9 +12.9 82 +16 +16 1020.7 956.9
21 13.05 СЗ 1
{4}
н/о н/о +14.8 +12.1 84 +16 +16 1021.1 957.0
22 13.05 штиль 0
{2}
н/о н/о +13.9 +11.7 87 +13 +13 1021.8 957.5
23 13.05 штиль 0 н/о н/о +13.1 +12.0 93 +13 +13 1022.5 958.0
00 14.05 штиль 0 н/о н/о +13.0 +12.3 96 +12 +12 1022.3 957.8
01 14.05 штиль 0 н/о н/о +12.0 +11.3 95 +11 +11 1023.0 958.2
02 14.05 штиль 0 н/о н/о +12.1 +12.1 100 +11 +11 1023.1 958.3
03 14.05 штиль 0 н/о н/о +12.3 +12.3 100 +12 +12 1022.8 958.1
04 14.05 штиль 0 н/о н/о +12.4 +12.4 100 +12 +12 1022.6 957.9 0.2
05 14.05 штиль 0 н/о н/о +11.8 +11.8 100 +11 +11 1022.3 957.5
06 14.05 З 2
{3}
н/о н/о +11.7 +11.2 97 +10 +10 1021.7 956.9
07 14.05 З 2
{3}
н/о н/о +11.6 +10.6 94 +10 +10 1021.4 956.6
08 14.05 З 1
{3}
н/о н/о +11.2 +10.5 95 +11 +11 1021.3 956.4
09 14.05 З 1
{3}
н/о н/о +11.1 +10.1 94 +11 +11 1021.4 956.5
10 14.05 штиль 0
{3}
н/о н/о +10.8 +9.8 94 +10 +10 1022.1 957.1
11 14.05 штиль 0 н/о н/о +11.6 +9.7 88 +11 +11 1022.6 957.7
12 14.05 штиль 0 н/о н/о +12.9 +10.8 87 +12 +12 1022.8 958.2
13 14.05 штиль 0 н/о н/о +13.5 +10.9 84 +13 +13 1023.1 958.6
14 14.05 ЮЗ 2
{4}
н/о н/о +14.0 +10.6 80 +14 +14 1022.8 958.4
15 14.05 штиль 0
{3}
н/о н/о +14.9 +10.9 77 +15 +15 1022.2 958.1
16 14.05 ЮЗ 3
{4}
н/о н/о +16.1 +11.6 75 +16 +16 1020.9 957.1
17 14.05 ЮЗ 1
{4}
н/о н/о +16.2 +11.5 74 +17 +17 1020.3 956.6 0.2
18 14.05 ЮЗ 2
{3}
н/о н/о +16.4 +11.7 74 +17 +17 1020.3 956.6
19 14.05 штиль 0
{3}
н/о н/о +16.4 +11.3 72 +16 +16 1020.0 956.3
20 14.05 штиль 0 н/о н/о +16.5 +11.8 74 +16 +16 1020.0 956.4
21 14.05 штиль 0
{3}
н/о н/о +15.7 +11.9 78 +16 +16 1020.7 956.8
22 14.05 штиль 0
{2}
н/о н/о +14.6 +11.9 84 +14 +14 1021.2 957.1
23 14.05 штиль 0
{3}
н/о н/о +14.0 +12.3 89 +14 +14 1021.5 957.2
01 15.05 ЮЗ 1
{4}
н/о н/о +13.3 +12.1 92 +13 +13 1021.5 957.1
02 15.05 ЮЗ 3
{4}
н/о н/о +14.2 +12.6 90 +13 +13 1021.0 956.8
03 15.05 штиль 0
{4}
н/о н/о +13.6 +12.5 93 +13 +13 1021.1 956.8
04 15.05 штиль 0 н/о н/о +12.8 +12.6 99 +12 +12 1020.9 956.4
05 15.05 ЮЗ 2
{4}
н/о н/о +13.8 +12.5 92 +13 +13 1020.4 956.2
06 15.05 Ю 1
{4}
н/о н/о +13.0 +11.8 92 +14 +14 1020.3 955.9
07 15.05 штиль 0
{2}
н/о н/о +12.6 +11.5 93 +12 +12 1020.0 955.5
08 15.05 Ю 1
{4}
н/о н/о +12.2 +11.0 92 +12 +12 1020.3 955.7
09 15.05 ЮЗ 2
{3}
н/о н/о +12.4 +11.2 92 +11 +11 1020.9 956.3
10 15.05 ЮЗ 2
{3}
н/о н/о +12.2 +11.0 92 +11 +11 1021.6 956.9
11 15.05 ЮЗ 2
{4}
н/о н/о +13.0 +11.5 91 +12 +12 1022.2 957.7
12 15.05 Ю 2
{4}
н/о н/о +15.3 +12.0 81 +15 +15 1022.1 958.1
13 15.05 Ю 3
{4}
н/о н/о +16.7 +12.5 76 +17 +17 1022.3 958.6
14 15.05 Ю 2
{4}
н/о н/о +18.5 +13.2 71 +20 +20 1021.9 958.6
15 15.05 ЮВ 2
{4}
н/о н/о +19.7 +13.4 67 +22 +22 комфорт 1021.1 958.1 0.2
16 15.05 ЮВ 3
{5}
н/о н/о +21.0 +13.0 60 +24 +24 комфорт 1019.9 957.2
17 15.05 ЮВ 2
{5}
н/о н/о +21.5 +13.2 59 +24 +24 комфорт 1018.9 956.4
18 15.05 ЮВ 3
{5}
н/о н/о +21.6 +13.2 59 +24 +24 комфорт 1018.6 956.1
19 15.05 ЮВ 2
{4}
н/о н/о +21.4 +13.5 61 +24 +24 комфорт 1018.6 956.1
20 15.05 ЮВ 3
{5}
н/о н/о +20.6 +13.5 64 +24 +24 комфорт 1019.2 956.5
21 15.05 ЮВ 3
{6}
н/о н/о +19.5 +13.1 66 +21 +21 комфорт 1020.2 957.2
22 15.05 Ю 2
{5}
н/о н/о +19.2 +13.0 67 +21 +21 комфорт 1020.9 957.8
23 15.05 Ю 2
{5}
н/о н/о +18.8 +13.0 69 +20 +20 1021.2 958.0
00 16.05 Ю 1
{4}
н/о н/о +18.8 +13.0 69 +21 +21 комфорт 1021.6 958.3
01 16.05 Ю 1
{3}
н/о н/о +18.8 +13.1 69 +21 +21 комфорт 1021.7 958.4
02 16.05 Ю 2
{3}
н/о н/о +17.6 +13.2 75 +18 +18 1021.8 958.3
03 16.05 штиль 0
{3}
н/о н/о +17.1 +12.8 76 +17 +17 1021.7 958.1
04 16.05 штиль 0
{1}
н/о н/о +16.6 +12.7 78 +17 +17 1021.7 958.0
05 16.05 штиль 0
{3}
н/о н/о +15.3 +12.3 82 +15 +15 1021.7 957.7
06 16.05 штиль 0
{3}
н/о н/о +14.3 +12.0 86 +14 +14 1021.5 957.3
07 16.05 штиль 0 н/о н/о +13.5 +11.9 90 +13 +13 1021.3 956.9 0.2
08 16.05 штиль 0 н/о н/о +13.4 +11.6 89 +13 +13 1021.2 956.8
09 16.05 штиль 0 н/о н/о +12.4 +11.2 92 +12 +12 1022.2 957.5
10 16.05 штиль 0 н/о н/о +12.6 +11.7 94 +12 +12 1022.5 957.9
11 16.05 штиль 0 н/о н/о +13.7 +12.0 89 +13 +13 1022.9 958.5
12 16.05 Ю 2
{3}
н/о н/о +16.3 +12.4 78 +16 +16 1022.5 958.7
13 16.05 Ю 2
{3}
н/о н/о +18.2 +12.9 71 +19 +19 1022.6 959.2
14 16.05 Ю 3
{4}
н/о н/о +19.6 +13.5 68 +22 +22 комфорт 1022.0 958.9
15 16.05 Ю 2
{4}
н/о н/о +21.9 +14.2 62 +25 +25 комфорт 1021.0 958.4
16 16.05 ЮВ 3
{5}
н/о н/о +22.4 +13.1 56 +25 +25 комфорт 1020.1 957.7
17 16.05 ЮВ 2
{5}
н/о н/о +23.4 +13.8 55 +27 +27 душно 1019.2 957.0
18 16.05 ЮВ 3
{5}
н/о н/о +24.2 +14.1 53 +27 +27 жарко 1018.6 956.6
19 16.05 ЮВ 2
{5}
н/о н/о +22.6 +14.1 59 +26 +26 жарко 1018.9 956.6
20 16.05 Ю 2
{4}
н/о н/о +22.2 +14.4 61 +25 +25 комфорт 1018.8 956.4
21 16.05 штиль 0
{3}
н/о н/о +20.6 +14.0 66 +23 +23 комфорт 1019.3 956.6
22 16.05 Ю 1
{2}
н/о н/о +19.1 +14.3 74 +22 +22 комфорт 1019.9 956.8
23 16.05 Ю 2
{3}
н/о н/о +17.9 +14.6 81 +18 +18 1020.7 957.3
00 17.05 Ю 2
{3}
н/о н/о +17.7 +14.2 80 +18 +18 1021.2 957.7
01 17.05 Ю 2
{4}
н/о н/о +17.2 +13.9 81 +18 +18 1021.2 957.6
02 17.05 Ю 2
{3}
н/о н/о +16.0 +13.8 87 +16 +16 1021.4 957.6
03 17.05 штиль 0
{3}
н/о н/о +16.1 +13.6 85 +16 +16 1021.3 957.5 0.2
04 17.05 штиль 0
{3}
н/о н/о +15.5 +13.3 87 +15 +15 1021.1 957.2
05 17.05 штиль 0
{2}
н/о н/о +15.2 +12.9 86 +15 +15 1020.9 956.9
06 17.05 ЮВ 2
{4}
н/о н/о +16.1 +12.4 79 +16 +16 1020.3 956.6
07 17.05 ЮВ 2
{5}
н/о н/о +15.6 +11.8 78 +15 +15 1020.1 956.3
08 17.05 Ю 2
{4}
н/о н/о +15.3 +11.8 80 +15 +15 1020.0 956.1
09 17.05 штиль 0
{3}
н/о н/о +13.4 +11.4 88 +13 +13 1020.5 956.2
10 17.05 штиль 0 н/о н/о +13.2 +11.7 91 +13 +13 1021.2 956.8
11 17.05 штиль 0
{3}
н/о н/о +15.6 +12.9 84 +15 +15 1021.3 957.4
12 17.05 Ю 3
{5}
н/о н/о +17.9 +13.0 73 +18 +18 1021.0 957.6
13 17.05 ЮВ 3
{5}
н/о н/о +19.6 +13.2 67 +21 +21 комфорт 1020.7 957.7
14 17.05 ЮВ 3
{6}
н/о н/о +20.6 +13.3 63 +23 +23 комфорт 1020.2 957.4
15 17.05 ЮВ 3
{6}
н/о н/о +22.8 +14.0 58 +26 +26 жарко 1018.6 956.4
16 17.05 ЮВ 3
{6}
н/о н/о +23.5 +14.4 57 +26 +26 жарко 1017.5 955.5
17 17.05 ЮВ 3
{6}
н/о н/о +24.0 +14.0 54 +26 +26 жарко 1016.5 954.6
18 17.05 ЮВ 4
{5}
н/о н/о +23.6 +13.9 54 +26 +26 жарко 1015.9 954.0
19 17.05 ЮВ 3
{5}
н/о н/о +22.9 +14.4 59 +27 +27 душно 1015.9 953.8
20 17.05 ЮВ 3
{5}
н/о н/о +22.1 +14.5 62 +25 +25 комфорт 1016.3 954.1
21 17.05 ЮВ 3
{5}
н/о н/о +20.7 +14.0 65 +24 +24 комфорт 1017.0 954.4
22 17.05 ЮВ 3
{5}
н/о н/о +19.9 +13.9 68 +22 +22 комфорт 1017.4 954.6
23 17.05 Ю 3
{5}
н/о н/о +19.1 +13.9 72 +21 +21 комфорт 1017.9 954.9
00 18.05 Ю 1
{5}
н/о н/о +18.1 +13.9 76 +20 +20 1018.7 955.5
01 18.05 Ю 1
{4}
н/о н/о +17.4 +13.8 79 +18 +18 1019.0 955.6
02 18.05 штиль 0
{3}
н/о н/о +17.0 +13.8 81 +17 +17 1019.1 955.6
03 18.05 ЮВ 1
{3}
н/о н/о +16.9 +13.3 79 +18 +18 1018.9 955.4
04 18.05 штиль 0
{3}
н/о н/о +16.0 +13.0 82 +16 +16 1018.8 955.1
05 18.05 штиль 0
{3}
н/о н/о +15.7 +12.8 83 +15 +15 1018.4 954.7
06 18.05 штиль 0
{2}
н/о н/о +15.6 +12.8 83 +15 +15 1018.1 954.4
07 18.05 Ю 1
{4}
н/о н/о +15.7 +12.7 82 +17 +17 1018.1 954.4
08 18.05 Ю 1
{3}
н/о н/о +15.1 +12.6 85 +16 +16 1018.3 954.5
09 18.05 Ю 2
{4}
н/о н/о +15.1 +12.4 84 +15 +15 1018.4 954.6
10 18.05 штиль 0
{4}
н/о н/о +13.2 +12.3 94 +13 +13 1019.7 955.4
11 18.05 штиль 0
{2}
н/о н/о +15.3 +12.8 85 +15 +15 1019.9 956.0
12 18.05 Ю 2
{3}
н/о н/о +17.4 +13.0 75 +18 +18 1020.1 956.6
13 18.05 ЮВ 2
{4}
н/о н/о +19.4 +13.7 70 +21 +21 комфорт 1019.9 956.9
14 18.05 ЮВ 3
{5}
н/о н/о +20.9 +14.4 66 +24 +24 комфорт 1019.3 956.6
15 18.05 ЮВ 2
{4}
н/о н/о +22.7 +15.1 62 +27 +27 душно 1018.1 955.9
16 18.05 ЮВ 2
{5}
н/о н/о +22.9 +15.0 61 +27 +27 душно 1017.3 955.2
17 18.05 ЮВ 2
{4}
н/о н/о +24.2 +15.7 59 +27 +27 жарко 1016.1 954.3
18 18.05 штиль 0
{3}
н/о н/о +24.3 +15.3 57 +27 +27 жарко 1015.3 953.6
19 18.05 штиль 0 н/о н/о +24.4 +15.4 57 +27 +27 жарко 1015.1 953.4
20 18.05 штиль 0 н/о н/о +23.7 +15.2 59 +27 +27 жарко 1015.3 953.4
21 18.05 штиль 0 н/о н/о +22.2 +15.5 66 +26 +26 душно 1016.0 953.8
22 18.05 штиль 0 н/о н/о +20.8 +15.4 71 +24 +24 комфорт 1016.8 954.3
23 18.05 Ю 1
{2}
н/о н/о +20.3 +15.0 72 +24 +24 комфорт 1017.5 954.8
01 19.05 штиль 0 н/о н/о +18.0 +15.1 83 +18 +18 1018.7 955.5
02 19.05 штиль 0 н/о н/о +17.4 +14.7 84 +17 +17 1019.2 955.8
03 19.05 штиль 0 н/о н/о +16.7 +14.6 87 +17 +17 1019.7 956.1
04 19.05 штиль 0 н/о н/о +16.2 +14.2 88 +16 +16 1019.7 956.0
05 19.05 штиль 0 н/о н/о +15.6 +13.9 90 +15 +15 1019.6 955.8

 

Местоположение метеостанции Дойс-Визиньюс (Парана, Бразилия): широта -25.70 долгота -53.10 высота над уровнем моря 522 м.

В архиве по умолчанию представлена погода в Дойс-Визиньюсе за последнюю неделю. Архивные данные за месяц целиком и за предыдущие месяцы, начиная с января 2011 года, Вы можете получить, выбрав интересующий диапазон дат из раскрывающегося списка и нажав кнопку "Ввод!".


*Определитесь, кто Вы:
робот инопланетянин человек

Внимание! Время в таблицах - всемирное. Для получения местного времени необходимо прибавить поправку, которая равна -3 ч.

Смотрите также архив погоды в соседних городах и на ближайших метеорологических станциях:

Погода в Планарту (Парана, Бразилия) (65 км)
Погода в Ново-Оризонти (Санта-Катарина, Бразилия) (82 км)
Погода в Дионисио Серкейра (Парана, Бразилия) (83 км)
Погода в Клевеландии (Парана, Бразилия) (110 км)
Погода в Сан-Мигель-ду-Осте (Санта-Катарина, Бразилия) (127 км)
Погода в Кампина-да-Лагоа (Парана, Бразилия) (129 км)
Погода в Игуасу (Аргентина) (136 км)
Погода в Фос-ду-Игуасу (Парана, Бразилия) (139 км)
Погода в Фос-ду-Игуасу (Парана, Бразилия) (150 км)
Погода в Шаншере (Санта-Катарина, Бразилия) (154 км)

Пояснения к столбцам:

Ветер - указаны скорость ветра в м/с - средняя за 10 мин, порывы в срок и между сроками (в фигурных скобках) и направление, откуда дует ветер: С - северный, СВ - северо-восточный, В - восточный, ЮВ - юго-восточный, Ю - южный, ЮЗ - юго-западный, З - западный, СЗ - северо-западный.
Видимость - горизонтальная дальность видимости в метрах или километрах. При видимости от 1 до 10 км при отсутствии осадков обычно наблюдается дымка, при ухудшении видимости до 1 км и менее - туман. В сухую погоду видимость может ухудшаться дымом, пылью или мглою.
Явления - указаны атмосферные явления, наблюдавшиеся в срок или в последний час перед сроком; фигурными скобками обозначены явления, наблюдавшиеся между сроками (за 1-3 часа до срока); квадратными скобками обозначены град или гололедные отложения с указанием их диаметра в мм.
Облачность - указаны через наклонную черту общая и нижняя облачность в баллах и высота нижней границы облаков в метрах; квадратными скобками обозначены формы облаков: Ci - перистые, Cs - перисто-слоистые, Cc - перисто-кучевые, Ac - высококучевые, As - высокослоистые, Sc - слоисто-кучевые, Ns - слоисто-дождевые, Cu - кучевые, Cb - кучево-дождевые. Подробнее классификацию облаков см. в Атласе облаков (PDF).
T - Температура воздуха - температура, измеренная на высоте 2 м над землей.
Td - Температура точки росы - температура, при понижении до которой содержащийся в воздухе водяной пар достигнет насыщения.
f - Относительная влажность воздуха - влажноcть воздуха, измеренная на высоте 2 м над землей.
Te - Эффективная температура - температура, которую ощущает одетый по сезону человек в тени. Характеристика душности погоды. При расчете учитывается влияние влажности воздуха и скорости ветра на теплоощущения человека.
Tes - Эффективная температура на солнце - температура, которую ощущает человек, с поправкой на солнечный нагрев. Характеристика знойности погоды. Зависит от высоты солнца над горизонтом, облачности и скорости ветра. Ночью, в пасмурную погоду, а также при ветре 12 м/с и более поправка равна нулю.
P - Атмосферное давление - приведенное к уровню моря атмосферное давление.
Po - Атмосферное давление - измеренное на уровне метеостанции атмосферное давление.
Tmin - Минимальная температура - минимум температуры воздуха на высоте 2 м над землей.
Tmax - Максимальная температура - максимум температуры воздуха на высоте 2 м над землей.
R - Количество осадков - Количество выпавших осадков за период времени, мм. При наведении курсора мыши на число - период времени, за который выпало указанное количество осадков.
R24 - Количество осадков - Количество выпавших осадков за 24 часа, мм.
S - Снежный покров - Высота снежного покрова, см. При наведении курсора мыши на число - состояние снежного покрова и степень покрытия местности в баллах.